DW7032 Weather Reports


time (UTC)temp
C
wind
direction
speed
KPH
gust
KPH
rain 1hr
cm
rain 24hr
cm
rain mn
cm
humidity
%
barometer
mb
20260507221536 7 267 3.2 9.7 0.00 0.00 0.00 54 1011.4
20260507220036 7 280 3.2 12.9 0.00 0.00 0.00 54 1011.4
20260507214539 7 291 1.6 16.1 0.00 0.00 0.00 52 1011.3
20260507213043 7 306 3.2 12.9 0.00 0.00 0.00 50 1011.4
20260507211546 7 243 8.0 19.3 0.00 0.00 0.00 48 1011.2
20260507210039 8 347 6.4 19.3 0.00 0.00 0.00 47 1011.3
20260507204534 8 252 8.0 14.5 0.00 0.00 0.00 45 1011.3
20260507203032 8 235 4.8 17.7 0.00 0.00 0.00 49 1011.3
20260507201542 8 277 4.8 14.5 0.00 0.00 0.00 48 1011.4
20260507200038 8 176 9.7 20.9 0.00 0.00 0.00 51 1011.3
20260507194531 8 269 8.0 16.1 0.00 0.00 0.00 47 1011.4
20260507193029 8 264 6.4 16.1 0.00 0.00 0.00 48 1011.5
20260507191528 8 200 6.4 16.1 0.00 0.00 0.00 48 1011.6
20260507190026 8 293 6.4 16.1 0.00 0.00 0.00 51 1011.7
20260507184524 8 265 4.8 12.9 0.00 0.00 0.00 52 1011.8
20260507183023 8 297 4.8 17.7 0.00 0.00 0.00 53 1011.9
20260507181522 7 282 4.8 14.5 0.00 0.00 0.00 54 1012.0
20260507180038 7 248 8.0 20.9 0.00 0.00 0.00 52 1012.2
20260507174524 8 233 4.8 20.9 0.00 0.00 0.00 52 1012.4
20260507173022 8 247 6.4 12.9 0.00 0.00 0.00 54 1012.4
20260507171512 8 258 4.8 14.5 0.00 0.00 0.00 59 1012.6
20260507170028 7 231 3.2 16.1 0.00 0.00 0.00 60 1012.8
20260507164507 7 250 4.8 14.5 0.00 0.00 0.00 60 1012.9
20260507163004 6 244 4.8 14.5 0.00 0.00 0.00 62 1012.9
20260507161506 6 187 4.8 16.1 0.00 0.00 0.00 60 1013.1
20260507160002 6 206 1.6 11.3 0.00 0.00 0.00 66 1013.1
20260507154501 6 210 3.2 11.3 0.00 0.00 0.00 65 1013.2
20260507153107 6 255 1.6 12.9 0.00 0.00 0.00 67 1013.2
20260507151555 6 208 3.2 11.3 0.00 0.00 0.00 68 1013.3
20260507150100 5 196 3.2 12.9 0.00 0.00 0.00 70 1013.3
20260507144549 5 212 3.2 8.0 0.00 0.00 0.00 72 1013.2
20260507143057 5 284 3.2 9.7 0.00 0.00 0.00 74 1013.3
20260507141541 5 263 1.6 6.4 0.00 0.00 0.00 75 1013.3
20260507140038 4 173 3.2 9.7 0.00 0.00 0.00 76 1013.3
20260507134534 4 176 3.2 6.4 0.00 0.00 0.00 78 1013.3
20260507133033 3 250 3.2 8.0 0.00 0.00 0.00 79 1013.3
20260507131531 3 214 3.2 6.4 0.00 0.00 0.00 78 1013.2
20260507130031 3 190 1.6 6.4 0.00 0.00 0.00 80 1013.2
20260507124525 2 196 3.2 6.4 0.00 0.00 0.00 81 1013.2
20260507123023 2 175 1.6 6.4 0.00 0.00 0.00 84 1013.1
20260507121520 1 222 1.6 4.8 0.00 0.00 0.00 88 1013.2
20260507120019 1 283 0.0 3.2 0.00 0.00 0.00 90 1013.1
20260507114518 0 288 0.0 1.6 0.00 0.00 0.00 91 1012.9
20260507113023 0 288 0.0 3.2 0.00 0.00 0.00 91 1012.9
20260507111518 -1 291 0.0 0.0 0.00 0.00 0.00 89 1012.8
20260507110015 -1 291 0.0 0.0 0.00 0.00 0.00 88 1012.8
20260507104514 -1 291 0.0 0.0 0.00 0.00 0.00 88 1012.7
20260507103012 -1 291 0.0 0.0 0.00 0.00 0.00 87 1012.7
20260507101511 -1 291 0.0 0.0 0.00 0.00 0.00 86 1012.7
20260507100015 -1 291 0.0 0.0 0.00 0.00 0.00 86 1012.7
20260507094508 0 291 0.0 0.0 0.00 0.00 0.00 86 1012.8
20260507093013 0 291 0.0 0.0 0.00 0.00 0.00 86 1012.8
20260507091506 0 291 0.0 0.0 0.00 0.00 0.00 86 1013.0
20260507090006 0 291 0.0 0.0 0.00 0.00 0.00 86 1012.9
20260507084514 0 347 0.0 0.0 0.00 0.00 0.00 86 1013.0
20260507083004 0 291 0.0 0.0 0.00 0.00 0.00 86 1013.1
20260507081501 0 291 0.0 0.0 0.00 0.00 0.00 86 1013.1
20260507080001 0 291 0.0 0.0 0.00 0.00 0.00 86 1013.2
20260507074608 -1 291 0.0 4.8 0.00 0.00 0.00 86 1013.1
20260507073059 -1 291 0.0 0.0 0.00 0.00 0.00 84 1013.2
20260507071606 -1 291 0.0 0.0 0.00 0.00 0.00 84 1013.3
20260507070106 -1 291 0.0 0.0 0.00 0.00 0.00 82 1013.5
20260507064556 -1 291 0.0 0.0 0.00 0.00 0.00 81 1013.7
20260507063051 -1 291 0.0 0.0 0.00 0.00 0.00 80 1013.8
20260507061549 0 291 0.0 0.0 0.00 0.00 0.00 81 1013.8
20260507060047 0 291 0.0 1.6 0.00 0.00 0.00 80 1013.9
20260507054605 0 291 0.0 1.6 0.00 0.00 0.00 79 1013.7
20260507053043 0 291 0.0 0.0 0.00 0.00 0.00 77 1013.9
20260507051546 0 291 0.0 0.0 0.00 0.00 0.00 75 1014.0
20260507050043 0 291 0.0 1.6 0.00 0.00 0.00 75 1014.0
20260507044537 1 291 0.0 1.6 0.00 0.00 0.00 75 1014.1
20260507043030 1 291 0.0 1.6 0.00 0.00 0.00 75 1014.2
20260507041528 1 291 0.0 1.6 0.00 0.00 0.00 73 1014.2
20260507040025 1 291 0.0 3.2 0.00 0.00 0.00 70 1014.3
20260507034523 2 291 0.0 3.2 0.00 0.00 0.00 69 1014.4
20260507033023 2 291 0.0 3.2 0.00 0.00 0.00 68 1014.4
20260507031522 2 291 0.0 1.6 0.00 0.00 0.00 68 1014.4
20260507030020 3 291 0.0 1.6 0.00 0.00 0.00 65 1014.3
20260507024520 3 291 0.0 1.6 0.00 0.00 0.00 64 1014.2
20260507023019 3 291 0.0 1.6 0.00 0.00 0.00 61 1014.1
20260507021527 3 291 0.0 3.2 0.00 0.00 0.00 60 1014.1
20260507020018 4 291 0.0 3.2 0.00 0.00 0.00 61 1014.1
20260507014518 4 291 1.6 4.8 0.00 0.00 0.00 60 1014.0
20260507013016 4 291 0.0 4.8 0.00 0.00 0.00 59 1013.9
20260507011520 4 295 0.0 3.2 0.00 0.00 0.00 58 1013.7
20260507010021 4 296 0.0 1.6 0.00 0.00 0.00 57 1013.8
20260507004515 5 295 1.6 4.8 0.00 0.00 0.00 57 1013.7
20260507003014 5 347 0.0 3.2 0.00 0.00 0.00 56 1013.6
20260507001515 5 291 1.6 4.8 0.00 0.00 0.00 56 1013.6
20260507000018 5 268 1.6 6.4 0.00 0.00 0.00 54 1013.5
20260506234512 5 248 3.2 6.4 0.00 0.00 0.00 54 1013.6
20260506233012 5 224 3.2 8.0 0.00 0.00 0.00 53 1013.6
20260506231513 5 288 0.0 6.4 0.00 0.00 0.00 53 1013.6
20260506230011 5 281 1.6 9.7 0.00 0.00 0.00 52 1013.6
20260506224512 6 294 1.6 4.8 0.00 0.00 0.00 53 1013.6
20260506223010 5 185 1.6 6.4 0.00 0.00 0.00 53 1013.6